Weather History for Menominee, MI

Change the Weather History Date:

Wednesday, October 3, 2012

  Actual Average Record
Temperature  
Mean Temperature 51 °F -  
Max Temperature 60 °F 64 °F 84 °F (1971)
Min Temperature 42 °F 43 °F 24 °F (1974)
Degree Days  
Heating Degree Days 14    
Growing Degree Days 1 (Base 50)    
Moisture  
Dew Point 44 °F    
Average Humidity 96    
Maximum Humidity 100    
Minimum Humidity 77    
Precipitation  
Precipitation 0.00 in - - ()
Sea Level Pressure  
Sea Level Pressure 29.98 in    
Wind  
Wind Speed 2 mph (NNW)    
Max Wind Speed 6 mph    
Max Gust Speed -    
Visibility 3 miles    
Events      
Averages and records for this station are not official NWS values.
T = Trace of Precipitation, MM = Missing Value Source: NWS Daily Summary

Daily Weather History Graph

Daily Weather History Graph

Search for Another Location

Airport:

Trip Planner

Search our weather history database for the weather conditions in past years. The results will help you decide how hot, cold, wet, or windy it might be!

Date:

Astronomy

Oct. 03, 2012 Rise Set
Actual Time 6:51 AM CDT 6:26 PM CDT
Civil Twilight 6:22 AM CDT 6:55 PM CDT
Nautical Twilight 5:48 AM CDT 7:29 PM CDT
Astronomical Twilight 5:13 AM CDT 8:04 PM CDT
Moon 8:06 PM CDT (10/3) 10:25 AM CDT (10/3)
Length of Visible Light 12h 33m
Length of Day
11h 34m
Waning Gibbous, 88% of the Moon is Illuminated
Oct 3
Waning Gibbous
Oct 8
Last Quarter
Oct 15
New
Oct 21
First Quarter
Oct 29
Full

Hourly Weather History & Observations

Time (CDT) Temp. Windchill Dew Point Humidity Pressure Visibility Wind Dir Wind Speed Gust Speed Precip Events Conditions
1:55 AM 42.8 °F - 42.8 °F 100% 29.97 in 7.0 mi Calm Calm - N/A   Clear
2:15 AM 42.8 °F - 42.8 °F 100% 29.96 in 9.0 mi Calm Calm - N/A   Mostly Cloudy
2:35 AM 44.6 °F - 44.6 °F 100% 29.96 in 9.0 mi Calm Calm - N/A   Overcast
2:55 AM 42.8 °F 40.1 °F 42.8 °F 100% 29.96 in 5.0 mi NNW 4.6 mph - N/A   Scattered Clouds
3:15 AM 44.6 °F 41.4 °F 42.8 °F 93% 29.96 in 0.8 mi NNW 5.8 mph - N/A   Overcast
3:35 AM 42.8 °F 40.1 °F 42.8 °F 100% 29.96 in 0.8 mi NNW 4.6 mph - N/A   Overcast
3:55 AM 42.8 °F 39.3 °F 42.8 °F 100% 29.96 in 0.5 mi NNW 5.8 mph - N/A   Overcast
4:15 AM 42.8 °F 40.1 °F 41.0 °F 93% 29.97 in 0.2 mi NNW 4.6 mph - N/A   Overcast
4:35 AM 42.8 °F 41.1 °F 41.0 °F 93% 29.98 in 0.2 mi NNW 3.5 mph - N/A   Overcast
4:55 AM 42.8 °F 41.1 °F 41.0 °F 93% 29.98 in 0.2 mi NNW 3.5 mph - N/A   Overcast
5:15 AM 42.8 °F 41.1 °F 42.8 °F 100% 29.99 in 0.2 mi NNW 3.5 mph - N/A   Overcast
5:55 AM 42.8 °F 39.3 °F 41.0 °F 93% 29.99 in 3.0 mi NNW 5.8 mph - N/A   Overcast
6:15 AM 42.8 °F 41.1 °F 41.0 °F 93% 30.00 in 5.0 mi NNW 3.5 mph - N/A   Overcast
6:35 AM 44.6 °F 43.1 °F 42.8 °F 93% 30.00 in 0.5 mi NNW 3.5 mph - N/A   Overcast
6:55 AM 44.6 °F - 42.8 °F 93% 30.00 in 4.0 mi Calm Calm - N/A   Mostly Cloudy
7:15 AM 44.6 °F 43.1 °F 42.8 °F 93% 30.00 in 4.0 mi NNW 3.5 mph - N/A   Overcast
7:35 AM 46.4 °F - 46.4 °F 100% 30.00 in 3.0 mi Calm Calm - N/A   Overcast
7:55 AM 46.4 °F - 44.6 °F 93% 30.00 in 2.5 mi Calm Calm - N/A   Overcast
8:15 AM 48.2 °F - 48.2 °F 100% 30.00 in 4.0 mi Calm Calm - N/A   Overcast
8:35 AM 48.2 °F - 48.2 °F 100% 30.00 in 5.0 mi Calm Calm - N/A   Overcast
6:15 PM 60.8 °F - 53.6 °F 77% 29.97 in 4.0 mi Calm Calm - N/A   Clear
11:55 PM 44.6 °F - 44.6 °F 100% 30.00 in 0.2 mi Calm Calm - N/A   Overcast